#timestamp,LO_Frequency,Hit 
1503054015.4,286046992.0,N
1503054035.2,286046987.4,N
1503054055.1,286046983.9,N
1503054056.0,286046983.9,N
1503054075.8,286046991.1,N
1503054095.6,286046989.0,N
1503054115.4,286046991.7,N
1503054135.3,286046996.3,N
1503054155.1,286046993.5,N
1503054175.8,286046994.0,N
1503054195.7,286046995.8,N
1503054215.5,286046993.4,N
1503054235.3,286046992.4,N
1503054255.2,286046993.6,N
1503054275.9,286046993.9,N
1503054295.7,286046990.8,N
1503054315.6,286046990.7,N
1503054335.4,286046988.6,N
1503054355.2,286046985.8,N
1503054375.1,286046986.6,N
1503054376.0,286046986.6,N
1503054395.8,286046982.9,P
1503054415.6,286046991.6,N
1503054435.5,286046987.1,P
1503054455.3,286046992.5,N
1503054475.1,286046990.4,N
1503054495.9,286046992.5,N
1503054515.7,286046994.8,N
1503054535.5,286046994.6,N
1503054555.3,286046993.7,N
1503054575.2,286046995.1,N
1503054595.0,286046993.7,N
1503054615.4,286046988.7,P
1503054635.3,286046994.9,P
1503054655.1,286046993.7,N
1503054656.0,286046993.7,N
1503054675.8,286046988.8,P
1503054695.7,286046993.9,P
1503054715.5,286046996.2,N
1503054735.3,286046995.5,N
1503054755.2,286046998.4,N
1503054775.9,286047000.7,N
1503054795.7,286046999.4,N
1503054815.6,286046999.4,N
1503054835.4,286046997.1,N
1503054855.2,286046995.2,N
1503054875.1,286046993.7,N
1503054876.0,286046993.7,N
1503054895.8,286046995.7,N
1503054915.6,286046991.7,N
1503054935.5,286046991.0,N
1503054955.3,286046987.2,P
1503054975.1,286046991.8,N
1503054995.9,286046990.5,N
1503055015.7,286046989.2,P
1503055035.5,286046995.0,P
1503055055.4,286046993.3,N
1503055075.2,286046994.6,N
1503055095.0,286046991.7,P
1503055095.9,286046991.7,P
1503055115.8,286046999.7,N
1503055135.6,286047002.2,N
1503055155.4,286047001.6,N
1503055175.3,286047001.2,N
1503055195.1,286046997.2,N
1503055196.0,286046997.2,N
1503055215.8,286046996.4,N
1503055235.7,286046994.0,N
1503055255.5,286046995.6,N
1503055275.3,286046998.6,N
1503055295.2,286046999.3,N
1503055315.9,286046999.3,N
1503055335.7,286047002.6,N
1503055355.6,286047000.4,N
1503055375.4,286046999.4,N
1503055395.2,286047000.3,N
1503055415.0,286047005.8,N
1503055415.9,286047005.8,N
1503055435.8,286047006.1,N
1503055455.6,286047005.9,N
1503055475.4,286047000.5,N
1503055495.3,286046999.7,N
1503055515.1,286047003.1,N
1503055535.8,286047005.6,N
1503055555.7,286047006.9,N
1503055575.5,286047005.0,N
1503055595.3,286047002.9,N
1503055615.2,286046999.0,N
1503055635.9,286047000.9,N
1503055655.7,286047003.7,N
1503055675.6,286047009.1,N
1503055695.4,286047004.6,N
1503055715.2,286047007.2,N
1503055735.0,286047003.2,N
1503055736.0,286047003.2,N
1503055755.8,286047002.6,N
1503055775.6,286047000.9,N
1503055795.4,286047000.4,N
1503055815.3,286046998.5,N
1503055835.1,286046998.6,N
1503055855.8,286046999.7,N
1503055875.7,286047000.7,N
1503055895.5,286046999.7,N
1503055915.3,286047002.3,N
1503055935.2,286046998.2,N
1503055955.9,286047002.8,N
1503055975.7,286047002.3,N
1503055995.6,286047001.1,N
1503056015.4,286046999.7,N
1503056035.2,286047002.0,N
1503056055.0,286047000.7,N
1503056056.0,286047000.7,N
1503056075.8,286046999.1,N
1503056095.6,286046994.0,N
1503056115.4,286046994.0,N
1503056135.3,286046993.7,N
1503056155.1,286046997.5,N
1503056175.8,286046995.8,N
1503056195.7,286046993.9,N
1503056215.5,286046995.4,N
1503056235.3,286047000.3,N
1503056255.2,286047002.7,N
1503056275.9,286047002.7,N
1503056295.7,286047002.7,N
1503056315.6,286047000.5,N
1503056335.4,286047000.9,N
1503056355.2,286047001.3,N
1503056375.1,286047002.1,N
1503056376.0,286047002.1,N
1503056395.8,286047001.7,N
1503056415.6,286047003.5,N
1503056435.5,286047001.5,N
1503056455.3,286046998.5,N
1503056475.1,286046997.4,N
1503056495.9,286046999.5,N
1503056515.7,286047000.0,N
1503056535.5,286046998.6,N
1503056555.3,286047000.5,N
1503056575.2,286047000.6,N
1503056595.0,286046997.6,N
1503056595.9,286046997.6,N
1503056615.7,286046994.0,N
1503056635.6,286046997.9,N
1503056655.4,286046997.6,N
1503056675.2,286046995.6,N
1503056695.1,286046997.0,N
1503056696.0,286046997.0,N
1503056715.8,286046994.9,N
1503056735.6,286046999.4,N
1503056755.5,286047001.0,N
1503056775.3,286047003.8,N
1503056795.1,286047003.9,N
1503056815.9,286047007.3,N
1503056835.7,286047008.5,N
1503056855.5,286047007.8,N
1503056875.3,286047006.9,N
1503056895.2,286047007.6,N
1503056915.0,286047004.9,N
1503056915.9,286047004.9,N
1503056935.7,286047005.9,N
1503056955.6,286047004.0,N
1503056975.4,286047005.9,N
1503056995.2,286047004.3,N
1503057015.1,286047001.8,N
1503057016.0,286047001.8,N
1503057035.8,286047000.6,N
1503057055.6,286047002.9,N
1503057075.5,286047004.2,N
1503057095.3,286047000.1,N
1503057115.1,286046999.9,N
1503057135.9,286047002.0,N
1503057155.7,286047002.9,N
1503057175.5,286047005.9,N
1503057195.4,286047003.5,N
1503057215.2,286047003.5,N
1503057235.0,286047006.0,N
1503057236.0,286047006.0,N
1503057255.8,286047004.1,N
1503057275.6,286047001.6,N
1503057295.5,286047005.7,N
1503057315.3,286047004.0,N
1503057335.1,286047000.3,N
1503057355.9,286046999.7,N
1503057375.7,286047003.5,N
1503057395.5,286047005.1,N
1503057415.4,286047003.3,N
1503057435.2,286047004.2,N
1503057455.0,286047004.1,N
1503057455.9,286047004.1,N
1503057475.8,286047005.3,N
1503057495.6,286047005.8,P
1503057515.4,286047005.3,P
1503057535.3,286047004.0,P
1503057555.1,286047007.3,P
1503057575.8,286046998.4,N
1503057595.7,286046996.9,N
